User: anonymous   Login
Location: Unspecified
(0.0000°N, 0.0000°E)
Time: 13:01:49
(UTC+00:00)
Language:

Fuji - Orbit

View from above orbital plane
View from above orbital plane
View from above satellite
View from above satellite

Ground track
Ground track

The orbit data is extracted from the following two-line orbital elements,

1 16909U 86061B   21015.71172375 -.00000107  00000-0 -66232-4 0  9991
2 16909  50.0158 115.9297 0011281 167.6881 357.2294 12.44470982565739
Epoch (UTC): 15 January 2021 17:04:52
Eccentricity: 0.0011281
inclination: 50.0158°
perigee height: 1479 km
apogee height: 1496 km
right ascension of ascending node: 115.9297°
argument of perigee: 167.6881°
revolutions per day: 12.44470982
mean anomaly at epoch: 357.2294°
orbit number at epoch: 56573

The dashed part of the orbit path shows where the satellite is in the earth's shadow,  

DLR